Время (UTC), дата Ветер
(°,м/с) 
Видим.   Явления Облачность Т
(°С)
Тd
(°С)
f(%) Тe
(°С)
Pmin
(гПа)
dP
(гПа)
Po
(мм)
O2
(г/м3)
Тmin Tmax R s Состояние
почвы
00 01.04.12 220 (ЮЗ) >10 км    ясно 
+0.1 -1.8 87 -2  1009.2  0.1  716  288           
03 01.04.12 170 (Ю) >10 км    3/0 верхняя 
[Ci fib]
-0 -3.5 77 -2  1008.5  -0.7  715  288           
06 01.04.12 150 (ЮВ) >10 км    10/5 1000 м кучево-дожд., средняя 
[Cb calv|Ac und]
+7.5 -2.6 49 +6  1006.5  -0.5  715  280  -0.6         
09 01.04.12 190 (Ю) >10 км    6/0 средняя 
[Ac trans]
+15.1 -4.6 25 +14  1003.7  -1.3  714  273           
12 01.04.12 240 (ЮЗ) >10 км    6/4 1000 м средняя 
[Sc|Ac trans]
+17.1 -6.3 20 +17  1002.3  -1  713  271           
15 01.04.12 200 (Ю) >10 км    8/4 1000 м средняя 
[Sc|Ac trans]
+13.5 -5.2 27 +14  1002.8  0.1  713  274    +17.6       
18 01.04.12 280 (З) >10 км    10/4 1000 м средняя 
[Sc|Ac und]
+11.2 -4.4 33 +10  1004.1  0.8  714  277    +17.6       
21 01.04.12 300 (СЗ) >10 км    10/5 1000 м средняя 
[Sc|Ac und]
+11.1 -2.1 40 +11  1004.1  0.1  713  276           
00 02.04.12 340 (С) >10 км    10/5 1000 м средняя 
[Sc|Ac und]
+6.4 +1.9 73 +5  1004.9  713  281           
03 02.04.12 320 (СЗ) >10 км    10/4 1000 м кучево-дожд., средняя 
[Cb calv|Ac und]
+6 +3 81 +5  1006  714  281           
06 02.04.12 300 (СЗ) 2000 м  слаб. ливневой снег{туман}  10/8 180 м кучево-дожд., средняя 
[Cb cap|Ac und]
+0.2 -0.1 98 -3  1010.9  3.5  717  289  +0.2         
09 02.04.12 280 (З) 1500 м  слаб. ливневой снег{туман}  10/8 120 м кучево-дожд., средняя 
[Cb cap|Ac und]
+0 -0.3 98 -3  1014.4  3.2  719  290           
12 02.04.12 260 (З) >10 км  {ливн. осадки, туман}  10/8 210 м кучево-дожд., средняя 
[Cb calv|Ac und]
+1 +0.7 98 -2  1015.9  1.6  721  289           
15 02.04.12 260 (З) >10 км    10/3 300 м кучево-дожд., средняя 
[Cb calv|Ac und]
+2.1 +0.8 91 -1  1017.2  1.5  722  288    +6.3       
18 02.04.12 250 (З) >10 км    3/0 средняя 
[Ac trans]
+1.4 -0.5 87 -1  1019.8  2.3  723  290    +6.3     
21 02.04.12 250 (З) >10 км    3/0 средняя 
[Ac trans]
+0.2 -3.4 77 -2  1022.1  1.8  725  292           
00 03.04.12 240 (ЮЗ) >10 км    1/0 средняя 
[Ac trans]
-2.4 -3.9 89 -4  1023.5  0.8  725  295           
03 03.04.12 210 (ЮЗ) >10 км    3/0 средняя 
[Ac trans]
-1.6 -3.2 89 -4  1024.5  1.1  726  295           
06 03.04.12 170 (Ю) >10 км    ясно 
+5.8 +0 66 +5  1024.4  1.3  727  287  -3.2         
09 03.04.12 290 (З) >10 км    3/0 верхняя 
[Ci fib]
+9.9 -7.2 29 +11  1023.8  0.2  727  283           
12 03.04.12 260 (З) >10 км    9/0 верхняя 
[Ci fib]
+11.7 -10.7 20 +11  1023.2  -0.3  727  282           
15 03.04.12 110 (В) >10 км    8/0 верхняя 
[Ci fib]
+10.6 -8.7 25 +12  1023.5  0.1  727  283    +12.1       
18 03.04.12 010 (С) >10 км    3/0 верхняя 
[Ci fib]
+5.5 -3.1 54 +5  1025.6  1.1  728  288    +12.1       
21 03.04.12 100 (В) >10 км    1/0 верхняя 
[Ci fib]
+2.5 -4.3 61 +2  1025.9  -0.3  728  291           
00 04.04.12 150 (ЮВ) >10 км    ясно 
+3.6 -3.7 59 +2  1025  -0.6  727  290           
03 04.04.12 140 (ЮВ) >10 км    3/0 верхняя 
[Ci fib]
+2.2 -2.9 69 1025.7  0.4  728  291           
06 04.04.12 130 (ЮВ) >10 км    8/0 верхняя 
[Ci fib]
+10.8 -1 44 +9  1024.6  0.6  728  282  +1.4         
09 04.04.12 130 (ЮВ) >10 км    8/0 верхняя 
[Ci fib]
+17.4 -3.3 24 +17  1022.6  -0.7  728  276           
12 04.04.12 110 (В) >10 км    9/0 средняя, верхняя 
[Ac trans|Ci fib]
+19.1 -5.9 18 +19  1021.5  -0.8  727  274           
15 04.04.12 090 (В) >10 км    9/0 средняя, верхняя 
[Ac trans|Ci fib]
+14.6 -2 32 +14  1022  -0.3  727  278    +19.4       
18 04.04.12 110 (В) >10 км    3/0 верхняя 
[Ci fib]
+9.2 -0.2 52 +8  1023.2  0.2  727  283    +19.4       
21 04.04.12 140 (ЮВ) >10 км    ясно 
+7 +1.4 68 +6  1022.8  0.2  726  285           
00 05.04.12 170 (Ю) >10 км    ясно 
+4.6 +1.4 80 +2  1022.5  -0.7  726  287           
03 05.04.12 150 (ЮВ) >10 км    3/0 верхняя 
[Ci fib]
+5.3 +1.3 75 +3  1021.9  -0.5  725  286           
06 05.04.12 150 (ЮВ) >10 км    1/0 верхняя 
[Ci fib]
+15 +3.1 45 +15  1020.3  0.2  726  277  +4.2         
09 05.04.12 050 (СВ) >10 км    1/0 средняя 
[Ac trans]
+20.6 -3.6 19 +21  1018.2  -1  725  272           
12 05.04.12 010 (С) >10 км    6/0 средняя 
[Ac trans]
+21.7 -5.6 16 +22  1016.4  -1.5  724  271           
15 05.04.12 040 (СВ) >10 км    8/0 средняя 
[Ac trans]
+18.4 -1.5 26 +19  1017.3  0.3  724  273    +22       
18 05.04.12 170 (Ю) >10 км    4/0 средняя 
[Ac trans]
+14.1 -0.4 37 +15  1018  0.1  724  277    +22       
21 05.04.12 160 (Ю) >10 км    6/0 средняя 
[Ac trans]
+12 +1.8 50 +11  1017.3  -1  723  279           
00 06.04.12 190 (Ю) >10 км    3/0 средняя 
[Ac trans]
+11.9 +1.7 50 +12  1015.8  -1.4  722  278           
03 06.04.12 220 (ЮЗ) >10 км    10/0 средняя 
[Ac und]
+12.8 -0.1 41 +13  1015.3  -0.3  722  278           
06 06.04.12 160 (Ю) 10 км    10/0 средняя 
[Ac und]
+11.5 +2.2 53 +12  1015  0.2  722  279  +9.6         
09 06.04.12 090 (В) >10 км    9/0 средняя 
[Ac trans]
+19.8 +2 31 +20  1013.6  -0.6  721  271           
12 06.04.12 100 (В) >10 км    4/0 средняя 
[Ac trans]
+22.2 -0.7 22 +22  1010.8  -2.3  720  268           
15 06.04.12 090 (В) 10 км    6/0 средняя 
[Ac trans]
+19.3 +1.1 30 +20  1010.2  -1  719  270    +23.2       
18 06.04.12 110 (В) >10 км    8/0 средняя 
[Ac trans]
+13.9 -1 36 +14  1011.1  0.1  719  276    +23.2       
21 06.04.12 120 (ЮВ) >10 км    6/0 средняя 
[Ac trans]
+12.9 +0.7 43 +12  1009.8  -1.4  718  276           
00 07.04.12 120 (ЮВ) >10 км    9/0 средняя 
[Ac trans]
+12.8 +1.9 47 +12  1007.8  -1.9  716  275           
03 07.04.12 140 (ЮВ) 10 км    8/0 средняя 
[Ac trans]
+10.2 +1.8 56 +10  1007  -1.2  716  278           
06 07.04.12 160 (Ю) >10 км    10/3 600 м кучево-дожд., средняя, верхняя 
[Cb cap|Ac As|Ci]
+17.2 +2.4 37 +17  1005.2  -0.5  715  271  +9.8         
09 07.04.12 290 (З) 10 км    10/3 1000 м кучево-дожд., средняя, верхняя 
[Cb cap|Ac As|Ci sp]
+18.4 +1.8 33 +18  1005.4  0.5  716  270           
12 07.04.12 350 (С) >10 км    10/0 средняя, верхняя 
[Ac As|Ci sp]
+19 +6.4 44 +19  1004.9  -0.4  715  268           
15 07.04.12 010 (С) >10 км    4/3 1000 м кучево-дожд., средняя 
[Cb cap|Ac trans]
+16.4 +7.1 54 +17  1005.4  715  271    +19.8       
18 07.04.12 050 (СВ) >10 км  в посл. час ливневой дождь  6/3 1000 м кучево-дожд., средняя 
[Cb calv|Ac trans]
+13.8 +7.4 65 +14  1006.2  0.3  715  273    +19.8       
21 07.04.12 240 (ЮЗ) >10 км    3/0 средняя 
[Ac trans]
+10 +6.3 78 +10  1006.6  -0.3  715  277           
00 08.04.12 310 (СЗ) >10 км    3/0 средняя 
[Ac trans]
+12 +6.9 71 +12  1005.8  -0.4  715  275           
03 08.04.12 260 (З) >10 км    9/4 1000 м кучево-дожд., средняя 
[Cb calv|Ac trans]
+12.9 +6.4 65 +14  1005.7  0.1  715  274           
06 08.04.12 340 (С) >10 км    9/3 1000 м средняя, верхняя 
[Sc diur, vesp|Ac trans|Ci fib]
+18.6 +6.5 45 +20  1004.9  0.2  715  269  +8.9    0.0     
09 08.04.12 120 (ЮВ) >10 км    9/3 1000 м кучево-дожд., средняя, верхняя 
[Cb calv|Ac trans|Ci fib]
+20.9 +5.2 36 +21  1003.8  -0.7  715  267           
12 08.04.12 340 (С) >10 км    10/3 1000 м кучево-дожд., средняя 
[Cb calv|Ac und]
+20.2 +3 32 +20  1003.1  -0.8  714  267           
15 08.04.12 030 (СВ) >10 км    8/4 600 м кучево-дожд., средняя 
[Cb calv|Ac trans]
+17.7 +6.7 48 +19  1003  -0.8  714  269    +21.7       
18 08.04.12 040 (СВ) >10 км    ясно 
+13.9 +6 59 +14  1003.6  -0.1  714  273    +21.7       
21 08.04.12 110 (В) >10 км    3/0 средняя 
[Ac trans]
+10.8 +5.3 69 +10  1003.8  -0.4  713  276           
00 09.04.12 130 (ЮВ) >10 км    1/0 средняя 
[Ac trans]
+11.3 +4.6 63 +11  1002.9  -0.7  713  275           
03 09.04.12 160 (Ю) >10 км    3/0 верхняя 
[Ci fib]
+9 +4.9 76 +8  1003.1  -0.7  713  277           
06 09.04.12 120 (ЮВ) >10 км    4/0 средняя 
[Ac trans]
+17.5 +6 47 +18  1001.8  0.3  713  269    -99.7      замёрзшая 
09 09.04.12 130 (ЮВ) >10 км    8/0 средняя 
[Ac trans]
+23.6 +1.8 24 +24  999.9  -0.8  712  264           
12 09.04.12 160 (Ю) >10 км    9/0 средняя 
[Ac trans]
+24.5 +0.4 20 +25  999  -0.7  712  263           
15 09.04.12 300 (СЗ) >10 км    9/3 1000 м кучево-дожд., средняя 
[Cb calv|Ac trans]
+20 +3.9 35 +20  1000.7  0.9  712  267    +25.8       
18 09.04.12 050 (СВ) >10 км    8/3 1000 м кучево-дожд., средняя 
[Cb calv|Ac trans]
+16.9 +4.6 44 +18  1002.6  1.2  713  270    +25.8       
21 09.04.12 320 (СЗ) >10 км    10/0 средняя 
[Ac und]
+15.4 +5.2 51 +16  1003.5  0.6  714  271           
00 10.04.12 290 (З) >10 км    10/0 средняя 
[Ac und]
+14.4 +6.1 57 +14  1005.3  1.6  715  273           
03 10.04.12 300 (СЗ) >10 км  слаб. ливневой дождь  10/4 1000 м кучево-дожд., средняя 
[Cb cap|Ac und]
+13.6 +6.9 64 +13  1005.8  0.3  715  273           
06 10.04.12 320 (СЗ) >10 км  слаб. ливневой дождь  10/8 1000 м кучево-дожд., средняя 
[Cb cap|Ac und]
+11.6 +10.2 91 +15  1009.3  2.9  717  275  +12.9         
09 10.04.12 280 (З) >10 км  {ливн. осадки}  3/1 600 м верхняя 
[Cu hum|Ci fib]
+18.3 +9.5 56 +19  1007.7  -0.3  717  269           
12 10.04.12 010 (С) >10 км  {ливн. осадки}  6/6 700 м 
[Cu hum]
+18.7 +10.3 58 +21  1008.8  1.1  718  269           
15 10.04.12 360 (С) >10 км    6/3 60 м кучево-дожд., средняя 
[Cb calv|Ac trans]
+16.5 +9.9 65 +19  1009.5  0.3  718  271          замёрзшая 
18 10.04.12 350 (С) >10 км    4/0 средняя 
[Ac trans]
+13.5 +9.1 75 +15  1011.8  1.6  719  275    +19.8     
21 10.04.12 020 (С) >10 км    3/0 средняя 
[Ac trans]
+11 +9 87 +12  1011.6  -0.6  719  277           
00 11.04.12 070 (В) >10 км    8/0 средняя 
[Ac As]
+10.2 +8.6 90 +11  1011.7  719  278           
03 11.04.12 070 (В) >10 км    10/4 1000 м средняя 
[Sc|Ac und]
+10.4 +9.1 92 +11  1011.8  -0.1  719  277           
06 11.04.12 190 (Ю) >10 км  {дождь}  10/5 1000 м средняя 
[Sc|Ac und]
+11.7 +10.1 90 +13  1013.3  1.6  720  276  +9.7         
09 11.04.12 080 (В) >10 км  {ливн. осадки}  6/3 1000 м средняя, верхняя 
[Sc|Ac trans|Ci fib]
+19.5 +10 54 +22  1010.3  -1.4  719  269           
12 11.04.12 090 (В) >10 км  {ливн. осадки}  4/3 1000 м верхняя 
[Sc|Ci fib]
+21.9 +7.9 41 +22  1008.4  -1.5  718  266           
15 11.04.12 060 (СВ) >10 км    5/3 1000 м верхняя 
[Sc|Ci fib]
+17.5 +9.8 61 +19  1008  -1.1  717  270    +22.2       
18 11.04.12 050 (СВ) >10 км    4/3 1000 м кучево-дожд., средняя 
[Cb calv|Ac trans]
+14.4 +10.4 77 +17  1009  0.5  718  273    +22.2  0.5     
21 11.04.12 080 (В) >10 км    3/0 средняя 
[Ac trans]
+11.2 +9.2 87 +11  1008.3  -1.3  717  276           
00 12.04.12 280 (З) >10 км    3/0 средняя 
[Ac trans]
+10.6 +9.2 91 +11  1007.4  -0.9  716  276           
03 12.04.12 290 (З) 1100 м  дымка  8/4 50 м средняя 
[St|Ac trans]
+10.2 +9.9 98 +12  1007.2  -0.3  716  276           
06 12.04.12 270 (З) 4000 м  дымка  9/8 180 м средняя 
[St|Ac trans]
+12.5 +11.1 91 +15  1006  -0.7  715  273  +9.1         
09 12.04.12 270 (З) >10 км  дымка  10/10 120 м 
[St]
+11.3 +10.4 94 +13  1006.7  0.4  716  275           
12 12.04.12 280 (З) 10 км  {морось, туман}  10/8 300 м кучево-дожд., средняя 
[Cb calv|Ac und]
+10.6 +9.5 93 +10  1008.1  1.2  716  276           
15 12.04.12 270 (З) >10 км  {ливн. осадки}  10/4 270 м кучево-дожд., средняя 
[Cb calv|Ac und]
+10.4 +8.7 89 +8  1008.3  -0.1  716  276    +13.5       
18 12.04.12 270 (З) >10 км  {ливн. осадки}  10/6 300 м кучево-дожд., средняя 
[Cb calv|Ac und]
+9.3 +7.7 90 +7  1009.1  0.5  717  278    +13.5  0.5     
21 12.04.12 280 (З) >10 км    3/1 600 м кучево-дожд., средняя 
[Cb calv|Ac trans]
+7.7 +6 89 +5  1010.7  1.2  718  280           
00 13.04.12 280 (З) >10 км    3/0 средняя 
[Ac trans]
+6.6 +5.5 93 +4  1011.9  1.2  719  282           
03 13.04.12 260 (З) >10 км    6/4 210 м средняя 
[St|Ac trans]
+5.9 +5.3 96 +4  1013.3  1.2  719  283           
06 13.04.12 280 (З) >10 км    3/1 200 м средняя 
[St|Ac trans]
+12.2 +5.9 65 +12  1013.3  1.2  720  277  +5.6         
09 13.04.12 270 (З) >10 км    3/3 300 м 
[Cu hum]
+15.8 +5.3 50 +16  1012.9  0.3  720  274           
12 13.04.12 320 (СЗ) >10 км    3/1 600 м средняя 
[Sc diur, vesp|Ac trans]
+17.7 +3.3 38 +18  1012.1  -0.4  720  272           
15 13.04.12 020 (С) >10 км    3/1 600 м средняя 
[Cu hum|Ac trans]
+17 +3.7 41 +17  1013  0.7  721  273    +18.2       
18 13.04.12 050 (СВ) >10 км    3/0 средняя 
[Sc|Ac trans]
+12.4 +4.7 59 +12  1014.4  0.5  721  277    +18.2       
21 13.04.12 110 (В) >10 км    4/0 средняя 
[Ac trans]
+10 +4.5 69 +10  1015.1  0.3  721  280           
00 14.04.12 140 (ЮВ) >10 км    3/0 средняя 
[Ac trans]
+8.3 +5.2 81 +8  1014.9  -0.4  721  281           
03 14.04.12 130 (ЮВ) >10 км    1/0 средняя 
[Ac trans]
+8.4 +5.7 83 +7  1015.1  0.1  721  281           
06 14.04.12 130 (ЮВ) >10 км    1/0 средняя 
[Ac trans]
+8.4 +5.7 83 +7  1015.1  0.1  721  281           
09 14.04.12 120 (ЮВ) >10 км    3/0 средняя 
[Ac trans]
+20.9 +4.2 33 +21  1011.8  -0.9  720  269           
12 14.04.12 110 (В) >10 км    4/1 600 м верхняя 
[Cu hum|Ci]
+22.4 +5.4 33 +22  1010.4  -1.1  720  267           
15 14.04.12 120 (ЮВ) >10 км    8/0 средняя, верхняя 
[Ac lent|Ci]
+20.2 +6.5 41 +20  1009.9  -0.8  719  269    +22.5       
18 14.04.12 110 (В) >10 км    3/0 верхняя 
[Ci fib]
+15.5 +7.4 58 +15  1010.8  719  273    +22.5       
21 14.04.12 110 (В) >10 км    ясно 
+12.8 +5.8 62 +12  1011.1  -0.3  719  276           
00 15.04.12 110 (В) >10 км    ясно 
+11.8 +5.4 65 +10  1010.3  -0.9  718  276           
03 15.04.12 110 (В) >10 км    3/0 верхняя 
[Ci fib]
+10.9 +6.6 75 +10  1010.2  -0.2  718  277           
06 15.04.12 110 (В) >10 км    8/0 средняя, верхняя 
[Ac trans|Ci fib]
+17.2 +7.5 53 +17  1008.1  -0.9  717  271  +10.4         
09 15.04.12 110 (В) 10  >10 км    8/0 средняя, верхняя 
[Ac trans|Ci fib]
+21.9 +6.4 37 +22  1006.4  -0.9  717  266           
12 15.04.12 100 (В) >10 км    8/0 средняя, верхняя 
[Ac trans|Ci fib]
+22.6 +6.8 36 +23  1005  -1.2  716  265           
15 15.04.12 060 (СВ) >10 км    8/0 средняя 
[Ac trans]
+20.2 +8.5 47 +20  1005.3  0.1  716  267    +23.9       
18 15.04.12 070 (В) >10 км    6/0 средняя 
[Ac trans]
+15.6 +8.7 64 +16  1007.4  1.2  717  272    +23.9       
21 15.04.12 110 (В) >10 км    ясно 
+13.1 +8.7 75 +14  1007.3  -0.5  716  274           
00 16.04.12 260 (З) >10 км    4/0 средняя 
[Ac trans]
+15.3 +8.9 66 +17  1007.1  0.2  716  272           
03 16.04.12 290 (З) >10 км    6/0 средняя 
[Ac trans]
+17 +8.6 58 +17  1007.5  0.7  717  270           
06 16.04.12 320 (СЗ) >10 км    8/0 средняя 
[Ac trans]
+18.5 +10 58 +21  1008.3  718  269  +9.8         
09 16.04.12 340 (С) >10 км    9/0 средняя, верхняя 
[Ac trans|Cs]
+21.3 +10.3 49 +24  1008  0.2  718  266           
12 16.04.12 020 (С) >10 км    9/1 600 м кучево-дожд., средняя 
[Cb calv|Ac trans]
+22.7 +8 39 +23  1007.2  -0.6  717  265           
15 16.04.12 330 (СЗ) >10 км    10/0 средняя 
[Ac und]
+21.1 +10.2 50 +23  1007.7  0.3  718  266    +23       
18 16.04.12 290 (З) >10 км    8/3 1000 м кучево-дожд., средняя 
[Cb calv|Ac trans]
+14.9 +11.1 78 +18  1010.4  1.5  719  272    +23       
21 16.04.12 310 (СЗ) >10 км    9/3 1000 м кучево-дожд., средняя 
[Cb calv|Ac trans]
+13.9 +11.4 85 +17  1010.7  0.2  719  273           
00 17.04.12 290 (З) >10 км    9/3 1000 м кучево-дожд., средняя 
[Cb calv|Ac trans]
+13.3 +10.9 85 +16  1010.7  -0.1  719  274           
03 17.04.12 280 (З) >10 км    9/4 1000 м кучево-дожд., средняя 
[Cb calv|Ac trans]
+13 +11 88 +15  1011.2  0.4  719  274           
06 17.04.12 290 (З) >10 км    9/5 600 м кучево-дожд., средняя 
[Cb calv|Ac trans]
+14.5 +8.5 67 +13  1012  720  274  +12.5         
09 17.04.12 280 (З) >10 км    10/5 1000 м кучево-дожд., средняя 
[Cb calv|Ac und]
+15.2 +6.2 55 +14  1012.4  0.4  720  274           
12 17.04.12 250 (З) >10 км    10/6 900 м кучево-дожд., средняя 
[Cb calv|Ac und]
+14.9 +8.1 64 +14  1012.5  0.1  720  274           
15 17.04.12 250 (З) >10 км  в посл. час ливневой дождь  10/5 1000 м кучево-дожд., средняя 
[Cb calv|Ac und]
+14.6 +9.3 70 +15  1013  0.1  720  274    +16.2       
18 17.04.12 280 (З) >10 км  {ливн. осадки}  8/3 1000 м средняя 
[Sc|Ac trans]
+14 +8.2 68 +13  1013.3  0.1  721  275    +16.2       
21 17.04.12 270 (З) >10 км    4/0 средняя 
[Ac trans]
+11.4 +7.6 77 +11  1013.7  -0.1  720  277           
00 18.04.12 270 (З) >10 км    3/0 средняя 
[Ac trans]
+10.8 +7.3 79 +10  1014  0.2  721  278           
03 18.04.12 300 (СЗ) >10 км    6/0 средняя, верхняя 
[Ac trans|Ci]
+10.8 +6.7 76 +11  1014.3  0.2  721  278          мокрая 
06 18.04.12 360 (С) >10 км    3/0 верхняя 
[Ci fib]
+16.5 +6 50 +17  1012.9  -0.3  721  273  +10         
09 18.04.12 070 (В) >10 км    4/0 верхняя 
[Ci fib]
+19.4 +4.8 38 +20  1010.6  -1.7  719  270           
12 18.04.12 100 (В) >10 км    4/0 верхняя 
[Ci fib]
+21.6 +4.3 32 +22  1006.7  -3.2  717  267           
15 18.04.12 100 (В) >10 км    4/0 верхняя 
[Ci fib]
+21 +3.9 32 +21  1003.2  -3.4  714  267    +22.6       
18 18.04.12 120 (ЮВ) >10 км    ясно 
+14.5 +5.7 55 +15  1003.4  -1  714  272    +22.6       
21 18.04.12 090 (В) >10 км    4/0 средняя 
[Ac trans]
+14.2 +8.1 67 +14  1001.5  -1.8  712  271           
00 19.04.12 090 (В) >10 км    10/0 средняя 
[Ac und]
+14 +8.5 69 +13  1000.5  -1  711  271           
03 19.04.12 140 (ЮВ) >10 км    10/5 1000 м кучево-дожд., средняя 
[Cb calv|Ac und]
+12.3 +8.5 78 +12  1000.1  -0.7  711  273           
06 19.04.12 100 (В) >10 км    10/4 1000 м кучево-дожд., средняя 
[Cb calv|Ac und]
+15.8 +9.7 67 +18  999.9  0.4  711  269  +12.2         
09 19.04.12 070 (В) >10 км    9/5 1000 м кучево-дожд., средняя 
[Cb calv|Ac trans]
+21.2 +8.8 45 +22  998.3  -0.6  711  264           
12 19.04.12 030 (СВ) 2000 м    8/1 1000 м средняя 
[Cu hum|Ac trans]
+23.5 +7.8 37 +24  997.6  -0.3  711  262           
15 19.04.12 330 (СЗ) >10 км    10/6 1000 м кучево-дожд., средняя 
[Cb calv|Ac und]
+20.9 +9.1 47 +22  998.9  -0.3  711  265    +23.8       
18 19.04.12 290 (З) 8{18}  >10 км  в посл. час ливневой дождь  10/6 600 м кучево-дожд., средняя 
[Cb calv|Ac und]
+12.1   1004.2  3.5  713      +23.8       
21 19.04.12 290 (З) >10 км  слаб. ливневой дождь  10/6 600 м кучево-дожд., средняя 
[Cb cap|Ac und]
+10.2 +8.7 90 +8  1006.8  2.1  715  276           
00 20.04.12 280 (З) н/о    н/о 
+9.9 +8.1 89 +9  1007.7  0.8  716  277           
03 20.04.12 280 (З) >10 км    9/5 1000 м кучево-дожд., средняя 
[Cb calv|Ac und]
+10 +7.5 84 +8  1008.6  0.8  717  277           
06 20.04.12 280 (З) >10 км    10/0 кучево-дожд., средняя 
[Cb calv|Ac und]
+10.2 +7.9 86 +8  1010.7  718  278         
09 20.04.12 280 (З) >10 км    9/5 600 м кучево-дожд., средняя 
[Cb calv|Ac trans]
+12.6 +8.1 74 +11  1011  0.7  719  275           
12 20.04.12 280 (З) >10 км    9/4 600 м кучево-дожд., средняя 
[Cb calv|Ac trans]
+14.5 +8.8 69 +14  1010.6  719  273           
15 20.04.12 290 (З) >10 км    9/3 600 м кучево-дожд., средняя 
[Cb calv|Ac trans]
+14.5 +8.7 68 +14  1011.2  0.6  719  274    +15.8       
18 20.04.12 270 (З) >10 км    8/0 средняя 
[Ac trans]
+12.8 +8.2 74 +12  1012.7  1.2  720  276    +15.8       
21 20.04.12 270 (З) >10 км    4/0 средняя 
[Ac trans]
+10.7 +7.4 80 +10  1012.8  -0.4  720  278           
00 21.04.12 290 (З) >10 км    3/0 средняя 
[Ac trans]
+10.7 +7.4 80 +10  1012.8  720  278           
03 21.04.12 270 (З) >10 км    6/0 средняя 
[Ac trans]
+10.4 +6.7 78 +11  1013.4  0.6  720  278           
06 21.04.12 350 (С) >10 км    8/0 средняя, верхняя 
[Ac trans|Ci fib]
+14.4 +6.6 59 +15  1013.5  0.8  721  275  +10         
09 21.04.12 240 (ЮЗ) >10 км    8/4 600 м средняя, верхняя 
[Cu hum|Ac trans|Ci fib]
+18.7 +6.5 45 +20  1011.8  -0.9  720  270           
12 21.04.12 360 (С) >10 км    6/3 600 м средняя, верхняя 
[Cu hum|Ac trans|Ci fib]
+20.3 +5.8 39 +20  1010.9  -0.6  720  269           
15 21.04.12 350 (С) >10 км    3/3 1000 м средняя 
[Sc diur, vesp|Ac und]
+19.3 +4 36 +20  1010.7  -0.4  719  270    +20.7       
18 21.04.12 350 (С) >10 км    8/4 1000 м кучево-дожд., средняя 
[Cb calv|Ac As]
+15.1 +7.6 61 +16  1012.3  0.9  720  274    +20.7       
21 21.04.12 090 (В) >10 км    4/0 средняя 
[Ac trans]
+11.6 +6.4 70 +11  1012  -0.9  719  277           
00 22.04.12 180 (Ю) >10 км    3/0 средняя 
[Ac trans]
+10.5 +6.3 75 +11  1011.6  -0.6  719  278           
03 22.04.12 130 (ЮВ) >10 км    8/0 средняя, верхняя 
[Ac As|Ci]
+12.1 +7.8 75 +12  1011.4  -0.1  719  276           
06 22.04.12 360 (С) >10 км    10/4 1000 м кучево-дожд., средняя 
[Cb calv|Ac und]
+14.7 +10.4 75 +18  1011.7  0.7  720  273  +9.9         
09 22.04.12 150 (ЮВ) >10 км    9/4 1000 м кучево-дожд., средняя 
[Cb calv|Ac trans]
+17.7 +10.4 62 +22  1011.1  0.1  719  270           
12 22.04.12 270 (З) >10 км    10/6 1000 м кучево-дожд., средняя 
[Cb calv|Ac und]
+18.5 +9.2 55 +20  1011.2  0.2  720  270           
15 22.04.12 320 (СЗ) >10 км  {ливн. осадки}  4/3 1000 м кучево-дожд., средняя 
[Cb calv|Ac trans]
+14.6 +11.1 80 +17  1012.2  0.3  720  273    +20.1       
18 22.04.12 280 (З) >10 км  {ливн. осадки}  10/3 1000 м кучево-дожд., средняя 
[Cb calv|Ac und]
+11.5 +10.4 93 +14  1014.9  721  277    +20.1  0.3     
21 22.04.12 270 (З) >10 км  слаб. ливневой дождь  10/8 800 м кучево-дожд., средняя 
[Cb cap|Ac und]
+11.6 +10.2 91 +13  1016  722  277           
00 23.04.12 250 (З) >10 км  слаб. ливневой дождь  10/6 600 м кучево-дожд., средняя 
[Cb cap|Ac und]
+9.6 +8.4 92 +10  1016.9  0.4  722  280           
03 23.04.12 280 (З) >10 км  {ливн. осадки}  6/3 1000 м кучево-дожд., средняя 
[Cb calv|Ac trans]
+8.7 +7.5 92 +8  1017.2  -0.1  723  281           
06 23.04.12 270 (З) >10 км  {ливн. осадки}  3/1 1000 м кучево-дожд., средняя 
[Cb calv|Ac trans]
+14 +8 67 +13  1017.4  1.2  724  276  +7.3       
09 23.04.12 300 (СЗ) >10 км    8/8 840 м 
[Cu hum]
+16.1 +7.1 55 +16  1017.2  0.1  724  274           
12 23.04.12 300 (СЗ) >10 км    5/5 600 м 
[Cu hum]
+17.5 +6.2 47 +18  1016.7  -0.2  723  273           
15 23.04.12 280 (З) >10 км    4/3 600 м кучево-дожд., верхняя 
[Cb calv|Ci fib]
+16.1 +6.3 52 +16  1016.7  -0.3  723  274    +18.3       
18 23.04.12 290 (З) >10 км    3/0 верхняя 
[Ci fib]
+11.6 +6.7 72 +13  1019.3  1.6  725  279    +18.3       
21 23.04.12 230 (ЮЗ) >10 км    ясно 
+10.9 +7.5 80 +12  1019.8  0.3  725  279           
00 24.04.12 250 (З) >10 км    ясно 
+10 +6.4 78 +10  1019.8  -0.2  725  281           
03 24.04.12 310 (СЗ) >10 км    ясно 
+10.9 +6.9 76 +11  1020.7  725  280           
06 24.04.12 020 (С) >10 км    ясно 
+16.3 +8.2 59 +18  1020.1  0.4  726  274  +8.7         
09 24.04.12 140 (ЮВ) >10 км    3/3 600 м 
[Cu med, cong]
+19.8 +4.2 36 +20  1018.8  -0.7  725  272           
12 24.04.12 080 (В) >10 км    4/4 600 м 
[Cu med, cong]
+20.7 +4.7 35 +21  1017.8  -0.7  725  271           
15 24.04.12 090 (В) >10 км    3/3 600 м 
[Cu hum]
+18.9 +6.1 43 +19  1018  0.1  725  272    +21.1       
18 24.04.12 110 (В) >10 км    ясно 
+13.2 +7.5 68 +13  1019.7  0.6  725  277    +21.1       
21 24.04.12 090 (В) >10 км    ясно 
+10.2 +6.9 80 +10  1019.8  -0.4  725  280           
00 25.04.12 100 (В) >10 км    ясно 
+9 +6.4 84 +8  1020.1  725  282           
03 25.04.12 090 (В) >10 км    ясно 
+10.1 +6.8 80 +9  1020  0.2  725  280           
06 25.04.12 120 (ЮВ) >10 км    ясно 
+18.6 +7.5 48 +19  1019.2  0.8  725  272  +8.2         
09 25.04.12 110 (В) >10 км    3/1 600 м средняя 
[Cu hum|Ac trans]
+22 +6.1 36 +22  1018  -0.6  725  269           
12 25.04.12 100 (В) >10 км    3/3 1000 м верхняя 
[Cu hum|Ci fib]
+23 +5 31 +23  1016.8  -0.9  724  268           
15 25.04.12 100 (В) >10 км    6/1 1000 м верхняя 
[Cu hum|Ci fib]
+20.2 +5.2 37 +20  1017  -0.3  724  271    +23.3       
18 25.04.12 100 (В) >10 км    3/0 средняя 
[Ac trans]
+14.1 +5.4 56 +14  1018.6  0.4  724  277    +23.3       
21 25.04.12 130 (ЮВ) >10 км    ясно 
+13.4 +4.2 54 +14  1018.1  -0.5  724  277           
00 26.04.12 100 (В) >10 км    ясно 
+11.1 +3.5 59 +12  1018.2  -0.4  724  280           
03 26.04.12 120 (ЮВ) >10 км    3/0 верхняя 
[Ci fib]
+10.6 +5.9 73 +10  1018.5  0.2  724  280           
06 26.04.12 120 (ЮВ) >10 км    4/0 верхняя 
[Ci fib]
+20.2 +5.2 37 +20  1017.4  0.7  724  271  +9.1         
09 26.04.12 110 (В) >10 км    4/0 верхняя 
[Ci fib]
+23.3 +3.1 27 +23  1016.9  724  268           
12 26.04.12 110 (В) >10 км    3/0 верхняя 
[Ci fib]
+23.8 +3.9 27 +24  1016.1  -0.7  724  268           
15 26.04.12 110 (В) >10 км    3/0 верхняя 
[Ci fib]
+21.3 +3.1 30 +21  1016.4  0.1  724  270    +23.8       
18 26.04.12 130 (ЮВ) >10 км    ясно 
+15.8 +2.7 41 +16  1018.3  0.9  724  275    +23.8       
21 26.04.12 080 (В) >10 км    ясно 
+14 +3.6 49 +14  1018.7  0.1  724  277           
00 27.04.12 070 (В) >10 км    1/0 верхняя 
[Ci fib]
+10.9 +4.5 65 +11  1019.2  0.1  724  280           
03 27.04.12 060 (СВ) >10 км    5/0 средняя, верхняя 
[Ac trans|Ci]
+12.4 +4.8 60 +14  1020.1  1.2  725  279           
06 27.04.12 110 (В) >10 км    3/0 верхняя 
[Ci fib]
+20.2 +6.9 42 +20  1019.5  0.8  726  271  +10         
09 27.04.12 100 (В) >10 км    4/4 600 м 
[Cu hum]
+23.9 +3.2 26 +24  1018.9  726  268           
12 27.04.12 080 (В) >10 км    4/4 600 м 
[Cu hum]
+23.4 +2.9 26 +23  1018.3  725  269           
15 27.04.12 070 (В) >10 км    3/3 600 м верхняя 
[Cu hum|Ci fib]
+22.2 +3.8 30 +22  1018.7  0.2  725  270    +24.8       
18 27.04.12 030 (СВ) >10 км    1/0 верхняя 
[Ci fib]
+16.8 +4.6 44 +17  1020.6  0.8  726  275    +24.8       
21 27.04.12 060 (СВ) >10 км    ясно 
+15.1 +5.8 54 +16  1021.2  0.3  726  276           
00 28.04.12 060 (СВ) >10 км    ясно 
+13.7 +5.8 59 +15  1021.3  -0.2  726  278           
03 28.04.12 тихо ()   >10 км    ясно 
+12.9 +6.3 64 +13  1021.9  0.5  727  278           
06 28.04.12 070 (В) >10 км    ясно 
+22.3 +7 37 +22  1020.8  0.6  727  270  +11.3         
09 28.04.12 100 (В) >10 км    6/6 800 м 
[Cu hum]
+24.7 +6.4 31 +25  1020.3  -0.1  727  268           
12 28.04.12 060 (СВ) >10 км    6/6 800 м 
[Cu hum]
+23.8 +3.6 27 +24  1019.6  -0.9  726  269           
15 28.04.12 090 (В) >10 км    4/3 1000 м средняя 
[Cu hum|Ac trans]
+24 +5.5 30 +24  1018.9  -0.6  726  268           
18 28.04.12 070 (В) >10 км    4/0 средняя 
[Ac trans]
+19.4 +6.2 42 +20  1020.6  0.9  726  272    +25.6       
21 28.04.12 010 (С) >10 км    ясно 
+15.1 +5.9 54 +16  1020.8  -0.6  726  276           
00 29.04.12 230 (ЮЗ) >10 км    ясно 
+14.8 +5.6 54 +16  1020.2  -0.6  726  277           
03 29.04.12 260 (З) >10 км    6/3 600 м средняя, верхняя 
[Sc|Ac trans|Ci sp]
+15.7 +5 49 +16  1020.1  726  276           
06 29.04.12 360 (С) >10 км    1/1 600 м 
[Cu hum]
+23.2 +6.5 34 +23    -0.1  725  268  +14.5         
09 29.04.12 330 (СЗ) >10 км    5/5 600 м 
[Cu hum]
+24.6 +7.3 33 +25  1018.2  -0.1  725  267           
12 29.04.12 340 (С) >10 км    6/6 600 м 
[Cu hum]
+25.1 +8.1 34 +25  1017.2  -0.8  725  266           
15 29.04.12 170 (Ю) >10 км  в посл. час гроза  4/4 600 м кучево-дожд. 
[Cb calv]
+21.8 +7.4 39 +22  1017.6  -0.1  725  269          мокрая 
18 29.04.12 020 (С) >10 км  {гроза}  ясно 
+18 +6.4 47 +18  1018.6  0.2  725  273    +25.6       
21 29.04.12 060 (СВ) >10 км    1/0 верхняя 
[Ci fib]
+15.9 +7.3 57 +17  1018.2  -0.7  724  275           
00 30.04.12 320 (СЗ) >10 км    ясно 
+12.4 +6.7 68 +14  1018.1  -0.7  724  278           
03 30.04.12 350 (С) >10 км    ясно 
+15 +8 63 +16  1017.2  -0.4  723  275           
06 30.04.12 350 (С) >10 км    ясно 
+22.2 +6.9 37 +22  1016.1  0.3  724  268  +12.1         
09 30.04.12 350 (С) >10 км    3/3 600 м 
[Cu hum]
+23.9 +5.8 31 +24  1014.9  -0.9  723  267           
12 30.04.12 310 (СЗ) >10 км    5/3 1000 м верхняя 
[Cu hum|Ci fib]
+25 +5.5 29 +25  1013.5  -1.2  722  266           
15 30.04.12 300 (СЗ) >10 км    8/0 верхняя 
[Ci fib]
+24 +4.8 29 +24  1012.7  -0.9  721  266    +25.1       
18 30.04.12 270 (З) >10 км    4/0 верхняя 
[Ci fib]
+17.9 +6.6 48 +18  1014  0.3  722  272    +25.1       
21 30.04.12 270 (З) >10 км    8/0 средняя 
[Ac trans]
+19.6 +5.6 40 +20  1013  -0.7  721  270           
00 01.05.12 290 (З) >10 км    4/0 верхняя 
[Ci fib]
+18.2 +5.9 44 +18  1013.3  -0.1  721  271           
03 01.05.12 040 (СВ) >10 км    9/3 1000 м кучево-дожд., верхняя 
[Cb calv|Ci fib]
+12.7 +9.5 81 +14  1015.6  1.3  722  276           
06 01.05.12 080 (В) >10 км    10/6 400 м кучево-дожд., средняя 
[Cb calv|Ac und]
+10.8 +8.1 83 +10  1017.9  1.8  723  279  +12.7         
09 01.05.12 100 (В) >10 км    6/1 600 м верхняя 
[Cu hum|Ci fib]
+16.3 +8.7 61 +16  1016.3  -0.5  723  273           
12 01.05.12 090 (В) >10 км    1/0 верхняя 
[Ci fib]
+19.9 +8.2 47 +21  1014.5  -1.1  722  270           
15 01.05.12 090 (В) >10 км    ясно 
+19 +8.3 50 +20  1013.6  -1  721  270    +20.3       
18 01.05.12 130 (ЮВ) >10 км    ясно 
+14.2 +8.2 67 +14  1014.6  0.1  722  275    +20.3       
21 01.05.12 250 (З) >10 км    ясно 
+14.2 +8.2 67 +14  1014.6  -0.8  721  275           
00 02.05.12 280 (З) >10 км    ясно 
+14.2 +7.1 62 +14  1013.4  -0.3  721  275           
03 02.05.12 270 (З) >10 км    1/0 верхняя 
[Ci fib]
+15.2 +8.1 63 +15  1013.4  -0.1  721  274           
Время (UTC), дата Ветер
(°,м/с) 
Видим.   Явления Облачность Т
(°С)
Тd
(°С)
f(%) Тe
(°С)
Pmin
(гПа)
dP
(гПа)
Po
(мм)
O2
(г/м3)
Тmin Tmax R s Состояние
почвы